Tracking 33190 objects as of 9-Feb-2026
HD Live streaming from Space Station
objects crossing your sky now

STARLINK-3355

Track STARLINK-3355 now!
10-day predictions
STARLINK-3355 is classified as:


NORAD ID: 50808
Int'l Code: 2022-001F
Perigee: 546.1 km
Apogee: 547.8 km
Inclination: 53.2 °
Period: 95.4 minutes
Semi major axis: 6917 km
RCS: Unknown
Launch date: January 6, 2022
Source: United States (US)
Launch site: AIR FORCE EASTERN TEST RANGE (AFETR)
Your satellite tracking list
Your tracking list is empty




NASA's NSSDC Master Catalog

Two Line Element Set (TLE):
1 50808U 22001F   26039.92603612  .00003451  00000-0  23494-3 0  9993
2 50808  53.2172 288.2491 0001164  74.5957 285.5164 15.08819539226208
Source of the keplerian elements: AFSPC